Location: *
(39.6167°S, 171.5333°W)
Time: 05:25:44
(UTC+00:00)

SL-4 R/B - Pass Details

Date: 13 May 2021
Orbit: 427 x 663 km, 51.6° (Epoch: 16 June)

Event Time Altitude Azimuth Distance (km) Brightness Sun altitude
Exits shadow 16:37:56 20° 189° (S) 1,287 3.7 -20.1°
Maximum altitude 16:39:16 24° 161° (SSE) 1,143 3.7 -19.9°
Drops below altitude 10° 16:42:30 10° 105° (ESE) 1,728 5.5 -19.3°
Sets 16:44:55 0° 90° (E) 2,564 7.0 -18.8°
